Regional Weather Roundup
Issued by NWS

Home | Current Version | Previous Version | Graphics & Text | Print | Product List | Glossary On
Versions: 1 2 3 4 5 6 7 8 9 10 11 12 13 14 15 16 17 18 19 20 21 22 23 24 25 26 27 28 29 30 31 32 33 34 35 36 37 38 39 40 41 42 43 44 45 46 47 48 49 50
000
ASUS43 KOAX 010402
RWRNE

WEATHER ROUNDUP FOR NEBRASKA
NATIONAL WEATHER SERVICE OMAHA NE
1100 PM CDT FRI JUL 31 2015

NOTES: SATELLITE DATA IS BEING USED TO AUGMENT CLOUD COVER ABOVE
       12000 FEET.
       "FAIR" INDICATES FEW OR NO CLOUDS BELOW 12,000 FEET WITH NO
       SIGNIFICANT WEATHER AND/OR OBSTRUCTIONS TO VISIBILITY.

  * THESE STATIONS DO NOT REPORT WEATHER SUCH AS RAIN...SNOW OR FOG.

NEZ001>004-019>022-054>056-010500-
NEBRASKA PANHANDLE

CITY           SKY/WX    TMP DP  RH WIND       PRES   REMARKS
SCOTTSBLUFF    CLEAR     69  58  67 E6        30.16R
ALLIANCE       CLEAR     67  55  65 SE6       30.16R
CHADRON        PTCLDY    70  55  59 CALM      30.11R
KIMBALL        CLEAR     66  50  56 SE6       30.22R
SIDNEY         CLEAR     67  52  58 SE9       30.21R
$$

NEZ057>060-069>072-079>082-010500-
SOUTHWEST NEBRASKA

CITY           SKY/WX    TMP DP  RH WIND       PRES   REMARKS
NORTH PLATTE   CLEAR     70  61  73 E15       30.14R
IMPERIAL       CLEAR     72  59  63 S3        30.14R
LEXINGTON      CLEAR     72  60  67 SE10      30.14R
MCCOOK         CLEAR     79  61  53 S6        30.11R
$$

NEZ005>010-023>029-035>040-094-010500-
NORTH CENTRAL NEBRASKA

CITY           SKY/WX    TMP DP  RH WIND       PRES   REMARKS
VALENTINE      CLEAR     75  61  61 NE7       30.12R
AINSWORTH      CLEAR     69  62  78 SE6       30.14R
BROKEN BOW     CLEAR     70  62  76 CALM      30.14R
ORD            CLEAR     65  63  93 SW3       30.11R
$$

NEZ041-046>049-061>064-073>077-083>087-010500-
SOUTH CENTRAL NEBRASKA

CITY           SKY/WX    TMP DP  RH WIND       PRES   REMARKS
GRAND ISLAND   PTCLDY    68  63  84 S6        30.11R
AURORA         MOCLDY    67  64  89 SW7       30.09S
HASTINGS       MOCLDY    70  62  76 W6        30.13R
HEBRON         MOCLDY    72  62  69 SW7       30.09S
HOLDREGE       CLEAR     67  60  79 CALM      30.13S
KEARNEY *      CLEAR     66  57  72 SE6       30.13S
$$

NEZ011>018-030>034-042>045-010500-
NORTHEAST NEBRASKA

CITY           SKY/WX    TMP DP  RH WIND       PRES   REMARKS
NORFOLK        CLEAR     66  61  84 CALM      30.09R
ALBION         CLEAR     64  61  91 CALM      30.11R
BLAIR          PTCLDY    75  69  81 CALM      30.07S
COLUMBUS *     CLEAR     61  55  82 CALM      30.10R
FREMONT        CLEAR     71  67  87 CALM      30.09R
TEKAMAH        PTCLDY    69  67  93 W6        30.07R
$$

NEZ050>053-065>068-078-088>093-010500-
SOUTHEAST NEBRASKA

CITY           SKY/WX    TMP DP  RH WIND       PRES   REMARKS
LINCOLN        CLEAR     72  65  78 N3        30.08R
OMAHA EPPLEY   PTCLDY    78  67  68 E5        30.05S
BEATRICE       PTCLDY    73  67  82 N3        30.08R
FALLS CITY     PTCLDY    78  74  87 E3        30.07R
NEBRASKA CITY  CLEAR     68  63  85 SE3       30.08R
$$

NEZ044-045-051>053-067-010500-
OMAHA AREA

CITY           SKY/WX    TMP DP  RH WIND       PRES   REMARKS
OMAHA EPPLEY   PTCLDY    78  67  68 E5        30.05S
BLAIR          PTCLDY    75  69  81 CALM      30.07S
FREMONT        CLEAR     71  67  87 CALM      30.09R
OFFUTT AFB     CLEAR     71  67  88 S3        30.06R
WAHOO          FAIR      67  65  93 W6        30.08R
$$


USA.gov is the U.S. government's official web portal to all federal, state and local government web resources and services.